Theta_e
290 292 293 291 290 290 286 286 281 283 282 283 286 286 287 287 287 287 288 289 290 289 289 290 290 291 292 294 296 297 298 300 303 308 313 320 326 326 325 324 322 322 321 321
289 293 291 287 289 289 287 285 285 284 282 287 289 288 286 286 287 287 287 288 289 290 290 290 291 290 290 292 293 296 298 300 304 307 314 324 325 324 323 322 322 321 319 307
284 290 290 282 286 288 286 286 285 279 283 287 286 286 285 285 286 287 288 289 290 290 290 291 291 291 290 291 293 297 298 302 308 310 314 325 324 322 320 319 320 311 304 300
282 285 277 286 291 291 286 285 285 285 286 288 287 287 287 288 287 288 289 289 290 291 290 292 292 291 291 291 292 297 298 299 301 307 315 323 321 320 319 317 309 302 298 297
280 281 286 287 289 288 286 284 288 285 286 288 288 286 285 289 291 291 291 291 292 293 292 292 292 292 291 290 291 294 297 298 299 300 321 320 317 311 308 306 304 301 299 298
283 277 277 284 291 294 292 282 290 287 286 286 286 279 281 289 290 290 291 292 291 294 294 293 292 292 291 289 288 290 293 297 299 299 300 299 305 305 304 302 300 300 300 300
281 279 283 291 293 294 277 278 288 289 288 286 282 284 288 291 289 291 291 292 294 294 294 294 295 294 291 289 288 291 294 297 297 299 300 299 299 299 300 299 299 299 299 300
280 277 275 293 291 279 285 289 291 290 290 288 289 290 291 290 289 290 291 292 294 293 293 294 296 294 291 290 293 294 295 293 295 297 298 298 299 300 300 300 299 298 298 299
283 284 293 293 289 292 294 292 292 290 293 292 291 291 292 289 289 291 291 293 294 291 294 295 297 294 291 293 294 295 293 295 294 296 295 295 294 295 296 298 298 298 298 299
286 290 292 293 294 295 295 294 295 296 293 293 290 290 290 291 291 291 292 293 294 294 292 293 295 296 295 295 294 293 293 295 296 296 296 297 295 295 294 294 294 294 295 294
287 290 294 295 294 296 296 297 295 296 296 293 292 291 291 291 291 292 292 293 294 293 294 293 294 294 296 297 295 293 293 294 295 297 296 294 294 293 292 292 293 292 292 291
282 291 290 291 297 298 296 295 296 295 294 294 293 291 292 291 292 292 291 292 292 293 293 295 293 293 295 297 295 292 291 292 292 292 294 295 293 291 292 292 292 291 291 291
290 295 295 299 298 299 297 296 297 296 294 292 293 294 295 292 292 295 292 292 292 292 293 294 293 293 295 297 296 293 291 292 293 292 292 292 292 291 288 290 292 292 291 291
297 297 295 296 296 297 298 300 299 298 296 295 295 295 294 293 294 293 292 292 293 294 293 294 293 292 295 296 296 292 291 294 292 291 291 291 292 291 291 290 289 289 290 291
298 298 296 298 299 298 299 298 295 294 296 294 295 295 295 293 292 293 294 294 294 294 294 294 294 293 295 296 295 292 291 291 292 290 291 292 291 291 291 291 290 290 289 289
301 301 300 298 297 297 297 296 295 294 295 295 294 296 296 296 294 294 294 295 292 291 293 293 293 295 295 294 293 292 292 293 292 290 290 290 290 289 289 289 288 288 287 286
298 296 295 297 298 298 297 297 296 296 296 295 297 297 297 297 296 294 295 294 294 294 294 293 293 295 296 294 293 292 291 291 288 290 290 288 289 288 288 288 287 288 285 285
302 302 302 300 299 299 300 300 299 298 296 297 300 300 297 296 294 295 296 295 295 294 294 294 294 294 295 294 293 294 289 289 289 288 289 289 288 289 288 287 287 286 287 286
305 302 304 304 303 302 301 301 301 301 301 301 299 298 299 297 297 297 297 295 293 292 294 294 296 294 292 294 293 292 291 289 288 287 287 286 287 287 287 286 287 286 286 286
303 304 305 305 304 303 303 303 303 303 303 301 300 298 298 298 299 298 298 295 293 294 295 295 293 293 292 293 292 291 290 289 288 288 289 288 284 284 284 285 286 286 285 286
304 305 304 303 304 305 306 305 304 302 302 304 300 298 298 299 301 300 297 297 297 296 297 296 292 292 292 289 291 290 289 288 287 286 285 289 288 288 286 285 284 285 287 287
304 304 303 302 302 302 303 304 304 303 304 303 303 301 300 298 300 300 300 299 302 291 295 295 292 289 290 286 291 291 289 288 286 286 285 286 289 287 284 284 283 284 284 283
302 303 303 303 304 303 301 303 302 303 303 304 302 300 298 298 298 296 295 301 301 296 293 298 288 286 286 291 292 291 290 289 287 286 285 286 288 288 280 280 280 282 282 284
300 301 300 305 301 300 301 302 302 303 303 304 302 301 300 299 299 301 302 297 292 292 295 289 289 286 286 293 294 293 290 288 286 285 285 286 283 283 280 280 279 281 283 284
301 301 300 299 299 300 303 301 300 301 302 302 303 303 303 302 300 301 302 302 292 293 298 286 286 286 291 294 295 293 288 287 285 285 285 281 283 281 281 279 279 281 282 283
300 298 298 299 300 300 300 298 296 298 302 299 299 301 301 302 302 301 301 297 299 294 299 296 294 290 294 295 294 291 288 287 286 285 284 283 282 282 281 280 281 281 282 283
300 295 297 298 300 299 298 297 300 297 296 296 299 301 301 301 301 299 295 302 300 300 299 298 296 295 295 293 291 289 288 286 285 284 285 287 281 282 279 281 281 281 282 282
Wind_Speed
5 10 14 18 16 18 19 10 7 10 11 17 19 20 15 19 22 25 26 26 26 28 26 26 27 28 28 20 21 22 22 22 22 20 18 19 10 11 14 13 13 14 12 11
1 14 22 19 17 16 14 14 10 9 7 13 15 16 15 17 19 20 22 24 25 27 28 27 27 26 27 27 24 19 23 23 21 20 17 17 15 16 15 15 15 13 11 12
3 20 14 13 16 13 15 14 6 9 10 13 14 15 12 14 15 19 20 22 22 21 22 22 23 23 23 24 25 25 23 21 19 17 16 10 11 11 15 16 14 14 14 14
1 2 4 6 11 15 16 12 9 7 9 13 13 14 9 11 11 15 16 18 20 16 19 21 18 20 21 22 23 21 21 19 16 15 16 15 17 15 14 11 15 16 14 13
4 6 9 7 9 4 4 5 9 6 6 8 7 10 6 8 9 10 10 12 13 14 17 19 21 21 19 21 22 22 22 19 18 19 10 13 16 18 17 18 18 13 14 14
4 5 2 1 12 11 8 4 6 3 5 6 6 9 5 7 9 11 11 11 12 15 15 17 19 16 20 21 22 23 23 19 16 20 17 19 13 19 16 18 19 13 15 13
4 5 4 8 10 11 7 4 3 1 5 6 2 5 7 7 7 8 9 12 13 12 14 16 12 16 17 19 21 21 21 18 19 19 18 20 22 13 17 16 17 16 14 11
4 5 2 7 5 7 3 2 4 2 4 3 6 7 6 8 8 10 11 14 14 12 13 13 10 13 14 18 18 19 15 19 19 17 17 19 18 11 19 14 14 13 12 10
4 3 5 4 5 6 5 5 4 4 6 5 6 6 7 7 8 9 9 12 12 7 11 12 9 7 12 12 16 16 18 14 14 12 20 17 16 15 14 12 12 11 7 7
5 4 7 6 4 6 5 3 6 7 4 7 2 2 7 6 6 5 7 9 7 9 8 11 8 9 5 8 9 15 15 12 10 11 17 8 9 12 9 9 7 8 7 10
7 6 4 7 4 3 3 4 4 5 3 5 6 5 6 6 5 6 6 6 5 8 8 8 13 12 14 7 5 8 8 9 7 7 3 6 12 7 6 5 2 6 6 7
2 3 4 3 1 3 3 3 4 5 4 5 5 5 6 5 4 5 7 8 7 9 10 11 15 14 17 11 7 7 10 9 8 7 1 5 4 3 10 6 9 13 12 8
3 4 2 7 5 4 0 1 3 5 5 5 4 6 5 5 5 7 7 7 8 9 12 12 13 15 17 18 10 13 11 14 8 9 10 7 1 2 4 4 5 6 7 7
2 1 2 3 1 0 4 3 6 2 6 3 5 2 3 3 4 5 6 6 8 8 11 11 9 13 13 15 9 7 8 12 8 8 9 9 8 6 3 3 3 3 1 3
5 4 5 7 4 3 3 2 7 5 5 5 3 2 3 4 4 4 4 5 6 8 10 13 12 12 13 15 14 9 6 9 9 7 8 9 7 6 7 8 7 4 3 5
3 6 7 3 2 2 4 7 6 5 5 3 2 3 3 3 2 1 2 4 4 5 6 7 9 11 11 14 14 7 9 14 10 8 8 9 10 7 8 8 8 7 7 4
4 5 3 5 5 2 3 6 6 5 3 3 4 2 3 4 4 3 2 2 3 4 5 7 7 8 10 12 15 6 6 8 9 8 8 6 8 6 7 6 6 3 3 2
6 6 1 7 3 2 4 5 6 7 5 4 1 2 3 2 1 4 2 3 1 3 4 4 5 6 8 10 12 9 5 5 6 6 7 8 8 8 8 7 7 5 3 3
4 4 6 6 6 2 3 1 6 7 7 6 5 4 4 4 4 5 5 2 0 0 2 1 6 5 7 11 10 8 6 6 6 5 6 7 8 8 8 8 8 8 6 7
5 4 3 4 3 4 4 4 6 8 8 6 7 6 6 6 5 5 4 5 4 5 5 3 4 3 4 6 8 5 6 6 6 6 6 4 4 5 5 7 8 8 6 7
5 6 6 5 5 3 5 4 3 4 9 12 6 7 6 5 4 5 5 4 6 5 5 7 4 1 2 2 4 4 4 4 4 4 5 6 4 5 5 5 5 6 7 6
1 3 4 3 1 3 4 2 5 4 6 7 7 7 3 3 4 4 4 2 3 8 5 5 5 4 2 2 1 3 2 3 3 3 4 4 5 3 4 5 5 5 5 5
4 2 3 5 2 5 3 3 1 2 5 6 3 2 2 3 3 2 4 6 4 6 5 4 6 6 5 2 1 2 2 3 4 4 5 4 4 2 2 4 3 4 5 6
3 5 4 4 3 2 4 2 3 2 2 3 2 3 4 3 4 3 5 7 9 8 4 6 6 6 3 2 1 1 2 3 3 3 4 5 3 2 3 3 3 4 5 6
5 4 3 4 5 4 4 6 4 4 3 1 3 1 2 2 3 5 5 5 5 2 0 4 6 6 3 1 3 4 2 3 3 3 5 3 4 3 4 3 4 5 6 7
6 2 2 5 5 4 2 3 2 2 4 4 1 1 1 3 3 4 5 1 3 2 2 5 5 4 3 4 3 0 4 3 3 4 5 4 3 4 4 4 5 6 7 8
3 1 3 4 4 5 4 4 5 3 2 2 3 4 2 1 4 5 3 5 4 4 4 3 4 6 4 4 3 5 5 4 5 5 4 4 2 4 3 5 6 7 7 8
Wind_Direction
26 93 72 60 53 57 58 17 65 354 25 9 353 350 19 2 352 352 352 352 351 347 343 339 336 332 327 328 325 316 310 305 299 296 297 304 177 166 150 153 151 147 152 163
351 99 81 62 41 60 67 34 42 22 10 360 350 343 22 5 358 351 349 346 344 343 343 341 337 334 328 323 322 308 308 302 293 287 285 271 176 163 156 149 143 157 149 113
9 118 117 49 17 71 81 55 50 26 347 351 352 348 24 3 359 349 346 346 342 339 336 335 335 330 328 324 317 319 317 310 286 266 271 225 164 157 162 153 151 113 112 108
315 107 95 164 45 90 88 62 44 29 355 358 0 331 37 5 341 339 342 338 335 332 338 337 331 332 328 333 327 331 331 328 325 306 251 201 152 149 143 133 115 109 104 98
95 51 119 48 7 320 337 83 32 25 356 6 358 327 338 344 319 317 324 327 320 328 338 336 349 343 340 340 337 339 342 343 344 346 240 170 147 130 122 110 109 99 105 103
3 98 113 347 331 318 274 132 45 40 321 347 2 355 307 331 331 333 327 316 317 332 330 328 344 346 348 350 345 345 347 348 359 23 29 42 15 119 110 112 101 111 95 96
358 99 99 351 329 314 70 269 3 294 300 340 336 220 275 318 303 310 318 324 326 329 330 328 348 349 352 352 354 343 347 343 11 25 38 52 56 354 87 86 96 91 96 91
18 67 95 354 16 87 205 342 278 258 267 274 284 289 299 301 301 307 316 318 322 326 321 325 337 350 355 0 352 349 346 7 11 22 39 40 42 10 47 66 68 90 98 100
98 144 118 105 160 218 179 210 267 286 262 275 279 294 290 298 294 290 299 305 309 304 325 328 333 338 359 341 358 347 358 12 28 16 53 48 42 38 42 30 44 53 48 98
85 94 116 111 122 128 101 254 268 267 233 282 141 228 279 279 287 289 290 301 313 325 322 344 345 2 317 327 357 346 2 357 20 37 46 46 81 63 55 40 25 52 59 78
106 38 109 55 71 100 173 251 307 315 90 28 15 6 13 8 356 324 321 314 330 331 344 351 352 353 353 309 337 342 331 323 324 14 44 43 46 18 43 26 11 81 66 79
168 160 136 273 134 295 67 11 338 335 78 63 32 38 12 351 359 347 339 340 356 5 5 6 1 357 354 346 349 349 352 355 356 6 46 76 79 81 53 55 55 56 58 95
124 107 149 252 212 7 120 329 289 311 103 60 34 48 10 353 2 3 348 359 6 8 6 6 12 1 354 356 356 358 4 5 343 5 16 29 130 88 87 348 29 68 57 72
113 106 239 339 220 291 293 255 233 187 120 102 83 19 343 31 6 8 5 5 1 4 12 8 15 8 356 356 344 349 360 360 9 20 17 12 10 17 79 184 174 130 211 47
175 193 223 262 162 184 221 337 78 63 113 86 46 52 30 41 52 7 357 31 7 8 7 4 3 7 6 359 352 1 359 7 11 12 10 15 10 18 29 23 45 102 55 32
220 252 234 280 88 38 106 74 72 58 53 64 53 44 30 3 73 62 35 76 33 18 4 359 349 354 3 0 355 360 4 5 22 11 4 15 11 13 20 16 22 57 50 29
306 298 59 326 243 163 138 135 123 110 72 7 344 64 10 2 13 6 34 87 51 58 27 8 346 358 3 2 356 342 9 13 9 19 8 13 6 9 13 16 7 95 85 37
279 320 328 267 257 201 184 149 143 146 155 244 269 22 334 356 261 300 237 172 103 25 36 21 5 0 1 3 359 350 13 13 12 18 9 18 15 13 11 7 2 13 13 353
303 5 323 13 17 133 346 191 172 173 186 205 210 221 250 267 285 294 295 198 270 298 263 44 26 40 5 2 10 355 1 25 17 3 4 16 9 3 5 4 357 358 0 358
307 290 308 293 14 358 332 305 30 23 325 200 209 216 235 257 268 294 309 251 210 224 199 200 89 62 24 358 1 360 20 20 7 8 357 13 11 352 358 353 355 346 349 346
22 45 29 46 32 356 335 355 177 222 242 286 228 236 229 247 253 276 300 302 231 243 250 191 135 235 107 7 351 360 49 36 7 4 347 346 348 353 350 340 337 331 336 334
100 9 13 342 324 302 302 313 219 233 263 293 238 232 221 272 295 290 229 267 280 246 275 166 166 181 211 272 320 342 36 46 18 2 339 331 337 339 348 331 327 325 320 314
8 321 253 293 297 221 233 220 34 359 335 341 311 258 205 223 237 256 291 269 265 236 240 183 160 184 213 212 25 2 29 24 12 4 342 329 326 342 315 297 300 311 312 309
319 298 291 281 301 301 297 206 200 246 29 25 3 174 216 278 303 244 244 260 262 265 244 158 176 191 163 204 191 56 46 49 22 0 337 333 309 344 308 296 308 306 307 307
247 269 291 319 312 289 278 232 193 175 118 311 264 218 138 196 210 265 271 270 280 227 11 179 173 162 216 213 57 61 53 72 37 343 329 303 307 312 300 303 299 309 315 312
250 220 253 293 264 250 330 344 32 334 101 308 292 139 150 84 306 295 294 109 188 201 98 148 193 183 174 96 92 25 72 85 10 339 319 303 331 322 314 319 314 320 319 315
116 215 348 333 37 22 357 339 48 28 82 15 57 354 59 32 334 325 350 311 313 72 65 94 72 96 100 94 56 55 76 47 10 338 348 335 335 312 311 322 319 320 317 318